Home > Weather > Guangzhou > Past weeks

Flag for China Past Weather in Guangzhou, Guangdong, China — Yesterday and Last 2 Weeks

Now
86 °F

Scattered clouds.


Feels Like: 91 °F
Forecast: 73 / 88 °F
Wind: 13 mph from Northwest

Location: Canton Airport

Current Time: Aug 28, 2016 at 3:20:21 PM

Latest Report: Aug 28, 2016 at 3:00 PM


Visibility: N/A

Pressure: 29.71 "Hg

Humidity: 59%

Dew Point: 70 °F

Location of GuangzhouLocation

Past Weather in Guangzhou — Graph

°F

Guangzhou Temperature Yesterday

Maximum temperature yesterday: 90 °F (at 1:00 PM)
Minimum temperature yesterday: 79 °F (at 12:30 AM)
Average temperature yesterday: 84 °F

High & Low Weather Summary for the Past Weeks

 TemperatureHumidityPressure
High97 °F (Aug 20, 3:30 PM)100% (Aug 21, 2:00 PM)29.77 "Hg (Aug 21, 2:00 PM)
Low75 °F (Aug 21, 1:30 PM)47% (Aug 22, 3:00 PM)29.30 "Hg (Aug 17, 3:30 PM)
Average85 °F76%29.57 "Hg
* Reported Aug 13 2:00 PM — Aug 28 2:00 PM, Guangzhou, Weather by CustomWeather, © 2016

Note: Actual official high and low records may vary slightly from our data, if they occured in-between our weather recording intervals... More about our weather records

Advertising

Guangzhou Weather History for the Previous 24 Hours

Scroll right to see more
 ConditionsComfort  
Time TempWeatherWind HumidityBarometerVisibility
2:00 PM
Sun, Aug 28
86 °FScattered clouds.13 mph59%29.74 "HgN/A
1:30 PM86 °FScattered clouds.13 mph59%29.74 "HgN/A
1:00 PM88 °FScattered clouds.13 mph55%29.74 "HgN/A
12:30 PM86 °FScattered clouds.13 mph59%29.74 "HgN/A
12:00 PM86 °FScattered clouds.10 mph59%29.77 "HgN/A
11:30 AM86 °FScattered clouds.10 mph59%29.77 "HgN/A
11:00 AM88 °FScattered clouds.13 mph55%29.77 "HgN/A
10:30 AM84 °FPartly sunny.10 mph62%29.77 "HgN/A
10:00 AM82 °FPartly sunny.13 mph66%29.77 "HgN/A
9:30 AM82 °FPartly sunny.13 mph66%29.77 "HgN/A
9:00 AM81 °FScattered clouds.10 mph70%29.77 "HgN/A
8:30 AM79 °FSunny.10 mph74%29.77 "Hg10 mi
8:00 AM79 °FPassing clouds.10 mph74%29.77 "HgN/A
7:30 AM79 °FPassing clouds.8 mph74%29.77 "HgN/A
7:00 AM79 °FPassing clouds.10 mph74%29.74 "HgN/A
6:30 AM77 °FPassing clouds.6 mph79%29.74 "HgN/A
6:00 AM77 °FClear.10 mph79%29.74 "Hg10 mi
5:30 AM79 °FClear.8 mph74%29.74 "Hg10 mi
5:00 AM79 °FClear.6 mph74%29.74 "Hg10 mi
4:30 AM79 °FClear.8 mph74%29.71 "Hg10 mi
4:00 AM79 °FPassing clouds.6 mph74%29.71 "HgN/A
3:30 AM79 °FClear.8 mph74%29.71 "Hg10 mi
3:00 AM79 °FClear.8 mph79%29.71 "Hg10 mi
2:30 AM79 °FClear.8 mph79%29.74 "Hg10 mi
2:00 AM81 °FClear.8 mph74%29.74 "Hg10 mi
1:30 AM81 °FClear.10 mph74%29.74 "Hg10 mi
1:00 AM81 °FClear.8 mph74%29.74 "Hg10 mi
12:30 AM82 °FPassing clouds.8 mph70%29.77 "HgN/A
12:00 AM82 °FClear.8 mph70%29.77 "Hg10 mi
11:30 PM
Sat, Aug 27
82 °FClear.6 mph70%29.77 "Hg10 mi
11:00 PM82 °FClear.10 mph70%29.77 "Hg10 mi
10:30 PM82 °FPassing clouds.8 mph74%29.77 "HgN/A
10:00 PM82 °FPassing clouds.10 mph74%29.77 "HgN/A
9:30 PM82 °FPassing clouds.10 mph74%29.77 "HgN/A
9:00 PM82 °FPassing clouds.8 mph74%29.77 "HgN/A
8:30 PM84 °FPassing clouds.6 mph70%29.74 "HgN/A
8:00 PM84 °FPassing clouds.6 mph74%29.74 "HgN/A
7:30 PM84 °FClear.8 mph74%29.71 "Hg10 mi
7:00 PM84 °FClear.8 mph74%29.71 "Hg10 mi
6:30 PM84 °FPassing clouds.10 mph74%29.68 "HgN/A
6:00 PM86 °FScattered clouds.10 mph70%29.68 "HgN/A
5:30 PM86 °FPassing clouds.8 mph70%29.68 "HgN/A
5:00 PM86 °FPassing clouds.10 mph70%29.68 "HgN/A
4:30 PM86 °FSunny.10 mph70%29.68 "Hg10 mi
4:00 PM88 °FScattered clouds.8 mph70%29.68 "HgN/A
3:30 PM88 °FScattered clouds.8 mph70%29.68 "HgN/A
3:00 PM88 °FScattered clouds.8 mph70%29.68 "HgN/A
Weather by CustomWeather, © 2016

See weather overviewHow to use our weather pages